Total_Precipitation_Accumulation
0.26 0.26 0.30 0.45 0.54 0.53 0.61 0.66 0.70 0.71 0.77 0.91 0.99 1.01 0.98 0.89 0.77 0.71 0.64 0.55 0.51 0.56 0.66 0.75 0.85 0.87 0.96 1.11 1.33 1.40 1.22 1.03 0.95 0.96 0.95 0.89 0.84 0.78 0.71 0.69 0.68 0.74 0.72 0.73
0.29 0.24 0.26 0.27 0.27 0.31 0.35 0.40 0.47 0.61 0.78 0.80 0.79 0.77 0.72 0.60 0.49 0.46 0.45 0.43 0.43 0.47 0.53 0.54 0.59 0.67 0.81 0.89 0.97 0.97 0.89 0.82 0.80 0.77 0.74 0.73 0.74 0.72 0.66 0.60 0.56 0.58 0.58 0.64
0.43 0.27 0.32 0.30 0.21 0.25 0.35 0.37 0.48 0.73 0.85 0.72 0.63 0.58 0.55 0.44 0.33 0.34 0.33 0.36 0.39 0.40 0.42 0.39 0.42 0.46 0.50 0.59 0.70 0.67 0.60 0.56 0.59 0.66 0.64 0.63 0.69 0.72 0.70 0.66 0.61 0.58 0.58 0.62
0.55 0.50 0.51 0.28 0.16 0.18 0.28 0.35 0.44 0.58 0.62 0.53 0.49 0.43 0.37 0.32 0.28 0.29 0.30 0.31 0.30 0.30 0.32 0.32 0.35 0.38 0.42 0.47 0.55 0.59 0.53 0.49 0.48 0.54 0.59 0.62 0.65 0.67 0.67 0.66 0.63 0.68 0.68 0.69
0.64 0.69 0.42 0.20 0.15 0.18 0.22 0.27 0.28 0.33 0.36 0.35 0.35 0.37 0.36 0.30 0.28 0.27 0.25 0.25 0.26 0.28 0.32 0.35 0.38 0.39 0.37 0.37 0.41 0.47 0.49 0.50 0.50 0.50 0.55 0.60 0.61 0.60 0.60 0.61 0.59 0.66 0.76 0.76
0.68 0.75 0.56 0.31 0.20 0.17 0.20 0.31 0.24 0.24 0.24 0.26 0.28 0.43 0.47 0.32 0.25 0.23 0.23 0.24 0.26 0.28 0.33 0.35 0.38 0.40 0.39 0.36 0.37 0.38 0.43 0.48 0.54 0.57 0.57 0.56 0.62 0.69 0.67 0.65 0.64 0.65 0.67 0.65
0.60 0.69 0.44 0.23 0.19 0.23 0.40 0.44 0.24 0.20 0.20 0.23 0.29 0.37 0.39 0.33 0.26 0.22 0.25 0.27 0.28 0.31 0.31 0.34 0.37 0.40 0.43 0.45 0.44 0.45 0.46 0.51 0.53 0.53 0.56 0.60 0.64 0.69 0.73 0.70 0.65 0.60 0.57 0.55
0.58 0.68 0.48 0.21 0.21 0.34 0.39 0.24 0.19 0.17 0.18 0.21 0.26 0.26 0.26 0.27 0.25 0.24 0.24 0.27 0.28 0.32 0.32 0.36 0.37 0.38 0.38 0.41 0.47 0.46 0.42 0.44 0.46 0.47 0.51 0.58 0.64 0.64 0.66 0.71 0.70 0.65 0.58 0.54
0.51 0.48 0.32 0.25 0.26 0.27 0.23 0.20 0.16 0.14 0.15 0.18 0.22 0.23 0.22 0.24 0.25 0.25 0.26 0.27 0.29 0.32 0.33 0.39 0.42 0.41 0.43 0.48 0.51 0.46 0.41 0.44 0.48 0.52 0.56 0.57 0.64 0.66 0.67 0.69 0.71 0.72 0.72 0.68
0.39 0.30 0.20 0.21 0.22 0.21 0.18 0.18 0.16 0.15 0.16 0.20 0.22 0.23 0.26 0.25 0.26 0.28 0.28 0.28 0.30 0.35 0.39 0.44 0.47 0.50 0.52 0.54 0.55 0.52 0.50 0.51 0.54 0.57 0.62 0.64 0.64 0.69 0.72 0.74 0.77 0.77 0.74 0.74
0.38 0.30 0.22 0.18 0.17 0.16 0.16 0.17 0.17 0.19 0.20 0.23 0.25 0.26 0.30 0.30 0.31 0.33 0.32 0.31 0.33 0.37 0.40 0.46 0.49 0.51 0.55 0.56 0.56 0.54 0.52 0.54 0.59 0.61 0.66 0.71 0.71 0.72 0.77 0.81 0.91 0.92 0.85 0.83
0.44 0.35 0.34 0.26 0.19 0.15 0.16 0.20 0.19 0.20 0.20 0.20 0.21 0.24 0.26 0.30 0.37 0.40 0.41 0.40 0.40 0.43 0.48 0.50 0.51 0.52 0.53 0.54 0.55 0.54 0.55 0.57 0.59 0.62 0.65 0.70 0.76 0.79 0.84 0.84 0.92 0.94 0.95 0.92
0.36 0.31 0.29 0.26 0.19 0.17 0.21 0.22 0.19 0.19 0.20 0.19 0.19 0.23 0.27 0.31 0.36 0.47 0.56 0.58 0.56 0.54 0.55 0.54 0.55 0.57 0.56 0.54 0.53 0.54 0.55 0.58 0.61 0.62 0.65 0.70 0.73 0.78 0.81 0.80 0.79 0.80 0.83 0.86
0.25 0.24 0.25 0.23 0.20 0.18 0.18 0.18 0.18 0.18 0.17 0.17 0.20 0.27 0.33 0.38 0.40 0.47 0.57 0.63 0.67 0.63 0.60 0.57 0.57 0.62 0.56 0.49 0.51 0.54 0.55 0.61 0.65 0.66 0.68 0.72 0.73 0.72 0.75 0.79 0.77 0.71 0.71 0.75
0.20 0.20 0.24 0.22 0.21 0.19 0.18 0.19 0.19 0.19 0.18 0.18 0.21 0.30 0.40 0.43 0.42 0.43 0.50 0.55 0.59 0.59 0.56 0.55 0.58 0.62 0.54 0.46 0.48 0.53 0.55 0.56 0.62 0.67 0.69 0.68 0.69 0.70 0.69 0.70 0.72 0.70 0.72 0.75
0.18 0.19 0.21 0.24 0.25 0.24 0.23 0.25 0.28 0.27 0.25 0.24 0.26 0.31 0.41 0.45 0.44 0.43 0.46 0.50 0.56 0.58 0.54 0.55 0.60 0.62 0.54 0.47 0.46 0.50 0.54 0.66 0.69 0.67 0.65 0.66 0.68 0.70 0.71 0.74 0.78 0.78 0.78 0.81
0.22 0.24 0.25 0.26 0.27 0.26 0.28 0.32 0.35 0.35 0.33 0.31 0.33 0.37 0.43 0.47 0.45 0.44 0.44 0.47 0.56 0.62 0.58 0.56 0.59 0.61 0.57 0.53 0.51 0.53 0.59 0.68 0.72 0.66 0.61 0.62 0.67 0.72 0.70 0.71 0.74 0.78 0.78 0.82
0.24 0.26 0.26 0.27 0.27 0.27 0.30 0.32 0.32 0.34 0.34 0.33 0.35 0.40 0.48 0.50 0.48 0.47 0.44 0.47 0.55 0.60 0.60 0.58 0.56 0.59 0.53 0.50 0.52 0.56 0.59 0.65 0.69 0.66 0.62 0.66 0.72 0.73 0.72 0.69 0.67 0.67 0.68 0.74
0.25 0.26 0.25 0.23 0.24 0.27 0.33 0.33 0.31 0.29 0.31 0.33 0.36 0.45 0.54 0.55 0.52 0.49 0.47 0.52 0.57 0.60 0.60 0.60 0.66 0.60 0.54 0.54 0.56 0.54 0.58 0.59 0.62 0.65 0.68 0.76 0.77 0.76 0.73 0.70 0.68 0.66 0.68 0.70
0.26 0.27 0.25 0.22 0.20 0.23 0.32 0.36 0.33 0.30 0.31 0.35 0.41 0.50 0.56 0.55 0.53 0.51 0.51 0.58 0.63 0.63 0.62 0.67 0.64 0.57 0.55 0.57 0.61 0.55 0.59 0.63 0.66 0.68 0.70 0.72 0.73 0.76 0.77 0.75 0.73 0.70 0.70 0.73
0.27 0.29 0.29 0.27 0.25 0.25 0.32 0.34 0.32 0.34 0.36 0.38 0.46 0.58 0.59 0.58 0.58 0.58 0.60 0.67 0.66 0.64 0.65 0.76 0.69 0.64 0.64 0.71 0.68 0.61 0.65 0.67 0.69 0.73 0.72 0.74 0.76 0.76 0.78 0.79 0.78 0.78 0.78 0.77
0.30 0.31 0.31 0.32 0.34 0.33 0.33 0.35 0.34 0.36 0.36 0.35 0.40 0.49 0.55 0.59 0.60 0.58 0.61 0.68 0.70 0.76 0.70 0.70 0.74 0.80 0.82 0.80 0.69 0.70 0.74 0.75 0.74 0.76 0.81 0.82 0.84 0.84 0.82 0.82 0.82 0.81 0.81 0.82
0.32 0.32 0.33 0.33 0.37 0.40 0.40 0.39 0.37 0.38 0.38 0.39 0.41 0.44 0.54 0.57 0.58 0.61 0.66 0.64 0.64 0.74 0.74 0.74 0.85 0.90 0.88 0.74 0.69 0.75 0.81 0.82 0.83 0.84 0.87 0.92 0.95 0.92 0.89 0.85 0.84 0.85 0.84 0.84
0.32 0.33 0.33 0.32 0.34 0.37 0.42 0.40 0.38 0.41 0.43 0.45 0.45 0.49 0.57 0.61 0.61 0.60 0.66 0.73 0.76 0.77 0.72 0.80 0.92 0.92 0.87 0.74 0.76 0.81 0.84 0.86 0.87 0.87 0.88 0.89 0.94 0.96 0.97 0.94 0.89 0.86 0.85 0.85
0.38 0.37 0.35 0.36 0.39 0.42 0.43 0.38 0.37 0.38 0.41 0.47 0.51 0.56 0.60 0.68 0.75 0.73 0.69 0.71 0.77 0.78 0.70 0.79 0.90 0.92 0.82 0.80 0.82 0.86 0.88 0.92 0.96 0.93 0.90 0.93 0.96 1.00 1.00 1.00 0.98 0.93 0.91 0.91
0.41 0.38 0.37 0.38 0.42 0.47 0.47 0.44 0.43 0.41 0.44 0.52 0.59 0.64 0.63 0.66 0.70 0.74 0.75 0.75 0.79 0.83 0.77 0.76 0.79 0.81 0.77 0.81 0.85 0.86 0.87 0.94 0.97 0.96 0.95 0.96 0.97 1.02 1.06 1.05 1.03 1.02 1.02 1.01
0.45 0.44 0.43 0.41 0.41 0.44 0.45 0.47 0.51 0.51 0.53 0.61 0.69 0.72 0.70 0.71 0.74 0.77 0.78 0.78 0.78 0.78 0.76 0.75 0.75 0.77 0.80 0.82 0.85 0.85 0.85 0.88 0.93 0.95 0.98 1.01 1.02 1.06 1.11 1.14 1.13 1.11 1.13 1.16